Weather in Myravlenko

Russia / Yamalo-Nenets Autonomous Okrug     63°47′43″N   74°29′40″E
temp.,
°C
wind,
m/s
gust,
m/s
humid.,
%
clouds,
%
prec.,
mm/h
press.,
hPa
HPBL,
m
27 february, sat
sat2723:00−23w349894 0.1 102486
02:00−22w359897 0.1 102398
05:00−22w469895 0.2 1024114
08:00−23wnw3598100 0.1 1023101
11:00−21wnw459699 0.1 1024274
14:00−21wnw4594100 0.1 1024333
17:00−22w3498100 0.1 102569
20:00−24w239994 0.1 102521
28 february, sun
sun2823:00−24wsw339996 0.1 102626
02:00−27wsw349887 0.0 102624
05:00−28wsw239686 0.0 102619
08:00−29sw339715 0.0 102619
11:00−24sw34937 0.0 1026166
14:00−22ssw349126 0.0 1026248
17:00−25s239621 0.0 102620
20:00−27s34950 0.0 102619
1 march, mon
mon123:00−28s34940 0.0 102620
02:00−29s33970 0.0 102519
05:00−29s33970 0.0 102519
08:00−29sse34950 0.0 102425
11:00−24sse45920 0.0 1024176
14:00−21s46900 0.0 1022251
17:00−24s44932 0.0 102233
20:00−26s45912 0.0 102149
2 march, tue
tue223:00−27s56918 0.0 102066
02:00−27s57960 0.0 101985
05:00−28s57930 0.0 101982
08:00−27s510950 0.0 1018159
11:00−23s711911 0.0 1018301
14:00−20s711870 0.0 1017334
17:00−23sse59907 0.0 1017155
20:00−24s6139413 0.0 1016191
3 march, wed
wed323:00−24s6129218 0.0 1016183
02:00−25s6119745 0.0 1015162
05:00−26s6119758 0.0 1015170
08:00−25s7129797 0.0 1015222
11:00−21s7129698 0.0 1015335
14:00−19sse81294100 0.0 1014340
17:00−20sse7139699 0.0 1013278
20:00−20sse8149693 0.0 1013288